owner,sensor,date,latitude,longitude,vertical_datum,mass_concentration_of_oxygen_in_sea_water,qcFlag 
DISL,ioos:station:DISL:MHPA:1,2012-09-01T00:00:00Z,30.6671,-87.9365,4.075,5.88,1111122 
DISL,ioos:station:DISL:MHPA:1,2012-09-01T00:30:00Z,30.6671,-87.9365,3.962,5.95,1111122 
DISL,ioos:station:DISL:MHPA:1,2012-09-01T01:00:00Z,30.6671,-87.9365,3.894,5.98,1111122 
DISL,ioos:station:DISL:MHPA:1,2012-09-01T01:30:00Z,30.6671,-87.9365,3.805,5.9,1111122 
DISL,ioos:station:DISL:MHPA:1,2012-09-01T02:00:00Z,30.6671,-87.9365,3.719,6.01,1111122 
DISL,ioos:station:DISL:MHPA:1,2012-09-01T02:30:00Z,30.6671,-87.9365,3.673,6.61,1111122 
DISL,ioos:station:DISL:MHPA:1,2012-09-01T03:00:00Z,30.6671,-87.9365,3.655,6.5,1111122 
DISL,ioos:station:DISL:MHPA:1,2012-09-01T03:30:00Z,30.6671,-87.9365,3.655,5.98,1111122 
DISL,ioos:station:DISL:MHPA:1,2012-09-01T04:00:00Z,30.6671,-87.9365,3.647,5.36,1111122 
DISL,ioos:station:DISL:MHPA:1,2012-09-01T04:30:00Z,30.6671,-87.9365,3.64,5.75,1111122 
DISL,ioos:station:DISL:MHPA:1,2012-09-01T05:00:00Z,30.6671,-87.9365,3.682,5.87,1111122 
DISL,ioos:station:DISL:MHPA:1,2012-09-01T05:30:00Z,30.6671,-87.9365,3.725,5.81,1111122 
DISL,ioos:station:DISL:MHPA:1,2012-09-01T06:00:00Z,30.6671,-87.9365,3.779,5.01,1111122 
DISL,ioos:station:DISL:MHPA:1,2012-09-01T06:30:00Z,30.6671,-87.9365,3.833,5.19,1111122 
DISL,ioos:station:DISL:MHPA:1,2012-09-01T07:00:00Z,30.6671,-87.9365,3.858,4.55,1111122 
DISL,ioos:station:DISL:MHPA:1,2012-09-01T07:30:00Z,30.6671,-87.9365,3.921,4.9,1111122 
DISL,ioos:station:DISL:MHPA:1,2012-09-01T08:00:00Z,30.6671,-87.9365,3.955,4.73,1111122 
DISL,ioos:station:DISL:MHPA:1,2012-09-01T08:30:00Z,30.6671,-87.9365,3.913,4.55,1111122 
DISL,ioos:station:DISL:MHPA:1,2012-09-01T09:00:00Z,30.6671,-87.9365,3.866,4.54,1111122 
DISL,ioos:station:DISL:MHPA:1,2012-09-01T09:30:00Z,30.6671,-87.9365,3.85,4.64,1111122 
DISL,ioos:station:DISL:MHPA:1,2012-09-01T10:00:00Z,30.6671,-87.9365,3.814,4.78,1111122 
DISL,ioos:station:DISL:MHPA:1,2012-09-01T10:30:00Z,30.6671,-87.9365,3.765,4.75,1111122 
DISL,ioos:station:DISL:MHPA:1,2012-09-01T11:00:00Z,30.6671,-87.9365,3.708,4.42,1111122 
DISL,ioos:station:DISL:MHPA:1,2012-09-01T11:30:00Z,30.6671,-87.9365,3.708,4.48,1111122 
DISL,ioos:station:DISL:MHPA:1,2012-09-01T12:00:00Z,30.6671,-87.9365,3.672,4.42,1111122 
DISL,ioos:station:DISL:MHPA:1,2012-09-01T12:30:00Z,30.6671,-87.9365,3.639,4.28,1111122 
DISL,ioos:station:DISL:MHPA:1,2012-09-01T13:00:00Z,30.6671,-87.9365,3.617,4.46,1111122 
DISL,ioos:station:DISL:MHPA:1,2012-09-01T13:30:00Z,30.6671,-87.9365,3.633,4.64,1111122 
DISL,ioos:station:DISL:MHPA:1,2012-09-01T14:00:00Z,30.6671,-87.9365,3.689,3.98,1111122 
DISL,ioos:station:DISL:MHPA:1,2012-09-01T14:30:00Z,30.6671,-87.9365,3.723,4.95,1111122 
DISL,ioos:station:DISL:MHPA:1,2012-09-01T15:00:00Z,30.6671,-87.9365,3.799,4.93,1111122 
DISL,ioos:station:DISL:MHPA:1,2012-09-01T15:30:00Z,30.6671,-87.9365,3.915,4.96,1111122 
DISL,ioos:station:DISL:MHPA:1,2012-09-01T16:00:00Z,30.6671,-87.9365,4.014,5.18,1111122 
DISL,ioos:station:DISL:MHPA:1,2012-09-01T16:30:00Z,30.6671,-87.9365,4.161,5.47,1111122 
DISL,ioos:station:DISL:MHPA:1,2012-09-01T17:00:00Z,30.6671,-87.9365,4.265,5.86,1111122 
DISL,ioos:station:DISL:MHPA:1,2012-09-01T17:30:00Z,30.6671,-87.9365,4.333,5.87,1111122 
DISL,ioos:station:DISL:MHPA:1,2012-09-01T18:00:00Z,30.6671,-87.9365,4.392,5.78,1111122 
DISL,ioos:station:DISL:MHPA:1,2012-09-01T18:30:00Z,30.6671,-87.9365,4.458,6.19,1111122 
DISL,ioos:station:DISL:MHPA:1,2012-09-01T19:00:00Z,30.6671,-87.9365,4.489,6.53,1111122 
DISL,ioos:station:DISL:MHPA:1,2012-09-01T19:30:00Z,30.6671,-87.9365,4.542,6.13,1111122 
DISL,ioos:station:DISL:MHPA:1,2012-09-01T20:00:00Z,30.6671,-87.9365,4.522,6.02,1111122 
DISL,ioos:station:DISL:MHPA:1,2012-09-01T20:30:00Z,30.6671,-87.9365,4.488,6.09,1111122 
DISL,ioos:station:DISL:MHPA:1,2012-09-01T21:00:00Z,30.6671,-87.9365,4.526,5.55,1111122 
DISL,ioos:station:DISL:MHPA:1,2012-09-01T21:30:00Z,30.6671,-87.9365,4.47,6.71,1111122 
DISL,ioos:station:DISL:MHPA:1,2012-09-01T22:00:00Z,30.6671,-87.9365,4.411,6.7,1111122 
DISL,ioos:station:DISL:MHPA:1,2012-09-01T22:30:00Z,30.6671,-87.9365,4.36,6.5,1111122 
DISL,ioos:station:DISL:MHPA:1,2012-09-01T23:00:00Z,30.6671,-87.9365,4.273,5.92,1111122 
DISL,ioos:station:DISL:MHPA:1,2012-09-01T23:30:00Z,30.6671,-87.9365,4.163,6.05,1111122 
DISL,ioos:station:DISL:MHPA:1,2012-09-02T00:00:00Z,30.6671,-87.9365,4.069,6.05,1111122 
DISL,ioos:station:DISL:MHPA:1,2012-09-02T00:30:00Z,30.6671,-87.9365,3.994,6.35,1111122 
DISL,ioos:station:DISL:MHPA:1,2012-09-02T01:00:00Z,30.6671,-87.9365,3.92,6.39,1111122 
DISL,ioos:station:DISL:MHPA:1,2012-09-02T01:30:00Z,30.6671,-87.9365,3.855,6.27,1111122 
DISL,ioos:station:DISL:MHPA:1,2012-09-02T02:00:00Z,30.6671,-87.9365,3.784,5.99,1111122 
DISL,ioos:station:DISL:MHPA:1,2012-09-02T02:30:00Z,30.6671,-87.9365,3.77,5.94,1111122 
DISL,ioos:station:DISL:MHPA:1,2012-09-02T03:00:00Z,30.6671,-87.9365,3.803,5.65,1111122 
DISL,ioos:station:DISL:MHPA:1,2012-09-02T03:30:00Z,30.6671,-87.9365,3.824,5.16,1111122 
DISL,ioos:station:DISL:MHPA:1,2012-09-02T04:00:00Z,30.6671,-87.9365,3.87,5.35,1111122 
DISL,ioos:station:DISL:MHPA:1,2012-09-02T04:30:00Z,30.6671,-87.9365,3.908,4.77,1111122 
DISL,ioos:station:DISL:MHPA:1,2012-09-02T05:00:00Z,30.6671,-87.9365,3.925,4.8,1111122 
DISL,ioos:station:DISL:MHPA:1,2012-09-02T05:30:00Z,30.6671,-87.9365,3.943,5.47,1111122 
DISL,ioos:station:DISL:MHPA:1,2012-09-02T06:00:00Z,30.6671,-87.9365,4.003,5.42,1111122 
DISL,ioos:station:DISL:MHPA:1,2012-09-02T06:30:00Z,30.6671,-87.9365,3.999,5.6,1111122 
DISL,ioos:station:DISL:MHPA:1,2012-09-02T07:00:00Z,30.6671,-87.9365,4.044,5.53,1111122 
DISL,ioos:station:DISL:MHPA:1,2012-09-02T07:30:00Z,30.6671,-87.9365,4.142,5.19,1111122 
DISL,ioos:station:DISL:MHPA:1,2012-09-02T08:00:00Z,30.6671,-87.9365,4.159,6.39,1111122 
DISL,ioos:station:DISL:MHPA:1,2012-09-02T08:30:00Z,30.6671,-87.9365,4.172,4.11,1111122 
DISL,ioos:station:DISL:MHPA:1,2012-09-02T09:00:00Z,30.6671,-87.9365,4.145,4.82,1111122 
DISL,ioos:station:DISL:MHPA:1,2012-09-02T09:30:00Z,30.6671,-87.9365,4.122,5.53,1111122 
DISL,ioos:station:DISL:MHPA:1,2012-09-02T10:00:00Z,30.6671,-87.9365,4.019,5.54,1111122 
DISL,ioos:station:DISL:MHPA:1,2012-09-02T10:30:00Z,30.6671,-87.9365,3.934,5.46,1111122 
DISL,ioos:station:DISL:MHPA:1,2012-09-02T11:00:00Z,30.6671,-87.9365,3.86,5.17,1111122 
DISL,ioos:station:DISL:MHPA:1,2012-09-02T11:30:00Z,30.6671,-87.9365,3.786,5.08,1111122 
DISL,ioos:station:DISL:MHPA:1,2012-09-02T12:00:00Z,30.6671,-87.9365,3.729,5.63,1111122 
DISL,ioos:station:DISL:MHPA:1,2012-09-02T12:30:00Z,30.6671,-87.9365,3.678,5.37,1111122 
DISL,ioos:station:DISL:MHPA:1,2012-09-02T13:00:00Z,30.6671,-87.9365,3.645,4.64,1111122 
DISL,ioos:station:DISL:MHPA:1,2012-09-02T13:30:00Z,30.6671,-87.9365,3.624,4.79,1111122 
DISL,ioos:station:DISL:MHPA:1,2012-09-02T14:00:00Z,30.6671,-87.9365,3.583,4.98,1111122 
DISL,ioos:station:DISL:MHPA:1,2012-09-02T14:30:00Z,30.6671,-87.9365,3.604,4.72,1111122 
DISL,ioos:station:DISL:MHPA:1,2012-09-02T15:00:00Z,30.6671,-87.9365,3.638,5.39,1111122 
DISL,ioos:station:DISL:MHPA:1,2012-09-02T15:30:00Z,30.6671,-87.9365,3.677,5.69,1111122 
DISL,ioos:station:DISL:MHPA:1,2012-09-02T16:00:00Z,30.6671,-87.9365,3.75,6.3,1111122 
DISL,ioos:station:DISL:MHPA:1,2012-09-02T16:30:00Z,30.6671,-87.9365,3.803,6.31,1111122 
DISL,ioos:station:DISL:MHPA:1,2012-09-02T17:00:00Z,30.6671,-87.9365,3.887,6.03,1111122 
DISL,ioos:station:DISL:MHPA:1,2012-09-02T17:30:00Z,30.6671,-87.9365,3.991,5.89,1111122 
DISL,ioos:station:DISL:MHPA:1,2012-09-02T18:00:00Z,30.6671,-87.9365,4.054,5.86,1111122 
DISL,ioos:station:DISL:MHPA:1,2012-09-02T18:30:00Z,30.6671,-87.9365,4.183,6.5,1111122 
DISL,ioos:station:DISL:MHPA:1,2012-09-02T19:00:00Z,30.6671,-87.9365,4.279,6.45,1111122 
DISL,ioos:station:DISL:MHPA:1,2012-09-02T19:30:00Z,30.6671,-87.9365,4.337,10.14,1111122 
DISL,ioos:station:DISL:MHPA:1,2012-09-02T20:00:00Z,30.6671,-87.9365,4.473,10.78,1111122 
DISL,ioos:station:DISL:MHPA:1,2012-09-02T20:30:00Z,30.6671,-87.9365,4.54,10.69,1111122 
DISL,ioos:station:DISL:MHPA:1,2012-09-02T21:00:00Z,30.6671,-87.9365,4.618,10.56,1111122 
DISL,ioos:station:DISL:MHPA:1,2012-09-02T21:30:00Z,30.6671,-87.9365,4.694,10.82,1111122 
DISL,ioos:station:DISL:MHPA:1,2012-09-02T22:00:00Z,30.6671,-87.9365,4.705,10.51,1111122 
DISL,ioos:station:DISL:MHPA:1,2012-09-02T22:30:00Z,30.6671,-87.9365,4.672,10.35,1111122 
DISL,ioos:station:DISL:MHPA:1,2012-09-02T23:00:00Z,30.6671,-87.9365,4.63,10.39,1111122 
DISL,ioos:station:DISL:MHPA:1,2012-09-02T23:30:00Z,30.6671,-87.9365,4.593,9.9,1111122 
DISL,ioos:station:DISL:MHPA:1,2012-09-03T00:00:00Z,30.6671,-87.9365,4.514,9.77,1111122 
DISL,ioos:station:DISL:MHPA:1,2012-09-03T00:30:00Z,30.6671,-87.9365,4.452,10.0,1111122 
DISL,ioos:station:DISL:MHPA:1,2012-09-03T01:00:00Z,30.6671,-87.9365,4.355,9.17,1111122 
DISL,ioos:station:DISL:MHPA:1,2012-09-03T01:30:00Z,30.6671,-87.9365,4.287,8.89,1111122 
DISL,ioos:station:DISL:MHPA:1,2012-09-03T02:00:00Z,30.6671,-87.9365,4.274,9.3,1111122 
DISL,ioos:station:DISL:MHPA:1,2012-09-03T02:30:00Z,30.6671,-87.9365,4.273,8.67,1111122 
DISL,ioos:station:DISL:MHPA:1,2012-09-03T03:00:00Z,30.6671,-87.9365,4.32,8.62,1111122 
DISL,ioos:station:DISL:MHPA:1,2012-09-03T03:30:00Z,30.6671,-87.9365,4.337,8.15,1111122 
DISL,ioos:station:DISL:MHPA:1,2012-09-03T04:00:00Z,30.6671,-87.9365,4.353,7.88,1111122 
DISL,ioos:station:DISL:MHPA:1,2012-09-03T04:30:00Z,30.6671,-87.9365,4.395,7.56,1111122 
DISL,ioos:station:DISL:MHPA:1,2012-09-03T05:00:00Z,30.6671,-87.9365,4.43,7.11,1111122 
DISL,ioos:station:DISL:MHPA:1,2012-09-03T05:30:00Z,30.6671,-87.9365,4.428,6.98,1111122 
DISL,ioos:station:DISL:MHPA:1,2012-09-03T06:00:00Z,30.6671,-87.9365,4.437,6.71,1111122 
DISL,ioos:station:DISL:MHPA:1,2012-09-03T06:30:00Z,30.6671,-87.9365,4.482,6.89,1111122 
DISL,ioos:station:DISL:MHPA:1,2012-09-03T07:00:00Z,30.6671,-87.9365,4.509,6.49,1111122 
DISL,ioos:station:DISL:MHPA:1,2012-09-03T07:30:00Z,30.6671,-87.9365,4.499,6.75,1111122 
DISL,ioos:station:DISL:MHPA:1,2012-09-03T08:00:00Z,30.6671,-87.9365,4.504,6.52,1111122 
DISL,ioos:station:DISL:MHPA:1,2012-09-03T08:30:00Z,30.6671,-87.9365,4.512,6.52,1111122 
DISL,ioos:station:DISL:MHPA:1,2012-09-03T09:00:00Z,30.6671,-87.9365,4.438,6.67,1111122 
DISL,ioos:station:DISL:MHPA:1,2012-09-03T09:30:00Z,30.6671,-87.9365,4.385,7.33,1111122 
DISL,ioos:station:DISL:MHPA:1,2012-09-03T10:00:00Z,30.6671,-87.9365,4.354,6.56,1111122 
DISL,ioos:station:DISL:MHPA:1,2012-09-03T10:30:00Z,30.6671,-87.9365,4.289,6.23,1111122 
DISL,ioos:station:DISL:MHPA:1,2012-09-03T11:00:00Z,30.6671,-87.9365,4.198,6.08,1111122 
DISL,ioos:station:DISL:MHPA:1,2012-09-03T11:30:00Z,30.6671,-87.9365,4.106,5.76,1111122 
DISL,ioos:station:DISL:MHPA:1,2012-09-03T12:00:00Z,30.6671,-87.9365,4.025,5.44,1111122 
DISL,ioos:station:DISL:MHPA:1,2012-09-03T12:30:00Z,30.6671,-87.9365,3.925,5.19,1111122 
DISL,ioos:station:DISL:MHPA:1,2012-09-03T13:00:00Z,30.6671,-87.9365,3.847,5.42,1111122 
DISL,ioos:station:DISL:MHPA:1,2012-09-03T13:30:00Z,30.6671,-87.9365,3.805,5.57,1111122 
DISL,ioos:station:DISL:MHPA:1,2012-09-03T14:00:00Z,30.6671,-87.9365,3.782,5.79,1111122 
DISL,ioos:station:DISL:MHPA:1,2012-09-03T14:30:00Z,30.6671,-87.9365,3.732,5.57,1111122 
DISL,ioos:station:DISL:MHPA:1,2012-09-03T15:00:00Z,30.6671,-87.9365,3.751,5.51,1111122 
DISL,ioos:station:DISL:MHPA:1,2012-09-03T15:30:00Z,30.6671,-87.9365,3.774,5.69,1111122 
DISL,ioos:station:DISL:MHPA:1,2012-09-03T16:00:00Z,30.6671,-87.9365,3.824,5.77,1111122 
DISL,ioos:station:DISL:MHPA:1,2012-09-03T16:30:00Z,30.6671,-87.9365,3.911,6.65,1111122 
DISL,ioos:station:DISL:MHPA:1,2012-09-03T17:00:00Z,30.6671,-87.9365,3.907,6.5,1111122 
DISL,ioos:station:DISL:MHPA:1,2012-09-03T17:30:00Z,30.6671,-87.9365,3.895,8.04,1111122 
DISL,ioos:station:DISL:MHPA:1,2012-09-03T18:00:00Z,30.6671,-87.9365,3.974,6.74,1111122 
DISL,ioos:station:DISL:MHPA:1,2012-09-03T18:30:00Z,30.6671,-87.9365,4.047,8.88,1111122 
DISL,ioos:station:DISL:MHPA:1,2012-09-03T19:00:00Z,30.6671,-87.9365,4.132,9.04,1111122 
DISL,ioos:station:DISL:MHPA:1,2012-09-03T19:30:00Z,30.6671,-87.9365,4.222,9.49,1111122 
DISL,ioos:station:DISL:MHPA:1,2012-09-03T20:00:00Z,30.6671,-87.9365,4.275,9.26,1111122 
DISL,ioos:station:DISL:MHPA:1,2012-09-03T20:30:00Z,30.6671,-87.9365,4.301,10.08,1111122 
DISL,ioos:station:DISL:MHPA:1,2012-09-03T21:00:00Z,30.6671,-87.9365,4.394,10.06,1111122 
DISL,ioos:station:DISL:MHPA:1,2012-09-03T21:30:00Z,30.6671,-87.9365,4.446,10.17,1111122 
DISL,ioos:station:DISL:MHPA:1,2012-09-03T22:00:00Z,30.6671,-87.9365,4.415,9.11,1111122 
DISL,ioos:station:DISL:MHPA:1,2012-09-03T22:30:00Z,30.6671,-87.9365,4.445,9.0,1111122 
DISL,ioos:station:DISL:MHPA:1,2012-09-03T23:00:00Z,30.6671,-87.9365,4.483,8.96,1111122 
DISL,ioos:station:DISL:MHPA:1,2012-09-03T23:30:00Z,30.6671,-87.9365,4.451,8.72,1111122 
DISL,ioos:station:DISL:MHPA:1,2012-09-04T00:00:00Z,30.6671,-87.9365,4.409,8.55,1111122 
DISL,ioos:station:DISL:MHPA:1,2012-09-04T00:30:00Z,30.6671,-87.9365,4.375,8.71,1111122 
DISL,ioos:station:DISL:MHPA:1,2012-09-04T01:00:00Z,30.6671,-87.9365,4.346,8.45,1111122 
DISL,ioos:station:DISL:MHPA:1,2012-09-04T01:30:00Z,30.6671,-87.9365,4.263,8.14,1111122 
DISL,ioos:station:DISL:MHPA:1,2012-09-04T02:00:00Z,30.6671,-87.9365,4.26,8.06,1111122 
DISL,ioos:station:DISL:MHPA:1,2012-09-04T02:30:00Z,30.6671,-87.9365,4.285,7.44,1111122 
DISL,ioos:station:DISL:MHPA:1,2012-09-04T03:00:00Z,30.6671,-87.9365,4.299,7.18,1111122 
DISL,ioos:station:DISL:MHPA:1,2012-09-04T03:30:00Z,30.6671,-87.9365,4.361,7.06,1111122 
DISL,ioos:station:DISL:MHPA:1,2012-09-04T04:00:00Z,30.6671,-87.9365,4.388,7.14,1111122 
DISL,ioos:station:DISL:MHPA:1,2012-09-04T04:30:00Z,30.6671,-87.9365,4.462,7.1,1111122 
DISL,ioos:station:DISL:MHPA:1,2012-09-04T05:00:00Z,30.6671,-87.9365,4.535,7.01,1111122 
DISL,ioos:station:DISL:MHPA:1,2012-09-04T05:30:00Z,30.6671,-87.9365,4.564,6.93,1111122 
DISL,ioos:station:DISL:MHPA:1,2012-09-04T06:00:00Z,30.6671,-87.9365,4.604,6.67,1111122 
DISL,ioos:station:DISL:MHPA:1,2012-09-04T06:30:00Z,30.6671,-87.9365,4.617,6.6,1111122 
DISL,ioos:station:DISL:MHPA:1,2012-09-04T07:00:00Z,30.6671,-87.9365,4.634,6.61,1111122 
DISL,ioos:station:DISL:MHPA:1,2012-09-04T07:30:00Z,30.6671,-87.9365,4.608,6.48,1111122 
DISL,ioos:station:DISL:MHPA:1,2012-09-04T08:00:00Z,30.6671,-87.9365,4.61,5.72,1111122 
DISL,ioos:station:DISL:MHPA:1,2012-09-04T08:30:00Z,30.6671,-87.9365,4.64,5.57,1111122 
DISL,ioos:station:DISL:MHPA:1,2012-09-04T09:00:00Z,30.6671,-87.9365,4.612,5.71,1111122 
DISL,ioos:station:DISL:MHPA:1,2012-09-04T09:30:00Z,30.6671,-87.9365,4.567,5.55,1111122 
DISL,ioos:station:DISL:MHPA:1,2012-09-04T10:00:00Z,30.6671,-87.9365,4.536,5.41,1111122 
DISL,ioos:station:DISL:MHPA:1,2012-09-04T10:30:00Z,30.6671,-87.9365,4.445,5.63,1111122 
DISL,ioos:station:DISL:MHPA:1,2012-09-04T11:00:00Z,30.6671,-87.9365,4.349,5.7,1111122 
DISL,ioos:station:DISL:MHPA:1,2012-09-04T11:30:00Z,30.6671,-87.9365,4.256,5.23,1111122 
DISL,ioos:station:DISL:MHPA:1,2012-09-04T12:00:00Z,30.6671,-87.9365,4.146,5.22,1111122 
DISL,ioos:station:DISL:MHPA:1,2012-09-04T12:30:00Z,30.6671,-87.9365,4.058,5.01,1111122 
DISL,ioos:station:DISL:MHPA:1,2012-09-04T13:00:00Z,30.6671,-87.9365,3.973,5.47,1111122 
DISL,ioos:station:DISL:MHPA:1,2012-09-04T13:30:00Z,30.6671,-87.9365,3.908,5.5,1111122 
DISL,ioos:station:DISL:MHPA:1,2012-09-04T14:00:00Z,30.6671,-87.9365,3.865,5.76,1111122 
DISL,ioos:station:DISL:MHPA:1,2012-09-04T14:30:00Z,30.6671,-87.9365,3.856,5.75,1111122 
DISL,ioos:station:DISL:MHPA:1,2012-09-04T15:00:00Z,30.6671,-87.9365,3.805,5.78,1111122 
DISL,ioos:station:DISL:MHPA:1,2012-09-04T15:30:00Z,30.6671,-87.9365,3.751,5.88,1111122 
DISL,ioos:station:DISL:MHPA:1,2012-09-04T16:00:00Z,30.6671,-87.9365,3.703,6.11,1111122 
DISL,ioos:station:DISL:MHPA:1,2012-09-04T16:30:00Z,30.6671,-87.9365,3.702,6.13,1111122 
DISL,ioos:station:DISL:MHPA:1,2012-09-04T17:00:00Z,30.6671,-87.9365,3.686,5.44,1111122 
DISL,ioos:station:DISL:MHPA:1,2012-09-04T17:30:00Z,30.6671,-87.9365,3.69,5.83,1111122 
DISL,ioos:station:DISL:MHPA:1,2012-09-04T18:00:00Z,30.6671,-87.9365,3.761,5.96,1111122 
DISL,ioos:station:DISL:MHPA:1,2012-09-04T18:30:00Z,30.6671,-87.9365,3.784,6.17,1111122 
DISL,ioos:station:DISL:MHPA:1,2012-09-04T19:00:00Z,30.6671,-87.9365,3.784,6.13,1111122 
DISL,ioos:station:DISL:MHPA:1,2012-09-04T19:30:00Z,30.6671,-87.9365,3.891,5.28,1111122 
DISL,ioos:station:DISL:MHPA:1,2012-09-04T20:00:00Z,30.6671,-87.9365,3.92,5.54,1111122 
DISL,ioos:station:DISL:MHPA:1,2012-09-04T20:30:00Z,30.6671,-87.9365,3.979,6.43,1111122 
DISL,ioos:station:DISL:MHPA:1,2012-09-04T21:00:00Z,30.6671,-87.9365,4.008,6.75,1111122 
DISL,ioos:station:DISL:MHPA:1,2012-09-04T21:30:00Z,30.6671,-87.9365,4.087,6.52,1111122 
DISL,ioos:station:DISL:MHPA:1,2012-09-04T22:00:00Z,30.6671,-87.9365,4.101,6.65,1111122 
DISL,ioos:station:DISL:MHPA:1,2012-09-04T22:30:00Z,30.6671,-87.9365,4.048,6.47,1111122 
DISL,ioos:station:DISL:MHPA:1,2012-09-04T23:00:00Z,30.6671,-87.9365,4.095,6.44,1111122 
DISL,ioos:station:DISL:MHPA:1,2012-09-04T23:30:00Z,30.6671,-87.9365,4.156,6.14,1111122 
DISL,ioos:station:DISL:MHPA:1,2012-09-05T00:00:00Z,30.6671,-87.9365,4.24,6.39,1111122 
DISL,ioos:station:DISL:MHPA:1,2012-09-05T00:30:00Z,30.6671,-87.9365,4.225,5.96,1111122 
DISL,ioos:station:DISL:MHPA:1,2012-09-05T01:00:00Z,30.6671,-87.9365,4.386,6.02,1111122 
DISL,ioos:station:DISL:MHPA:1,2012-09-05T01:30:00Z,30.6671,-87.9365,4.515,5.61,1111122 
DISL,ioos:station:DISL:MHPA:1,2012-09-05T02:00:00Z,30.6671,-87.9365,4.488,5.83,1111122 
DISL,ioos:station:DISL:MHPA:1,2012-09-05T02:30:00Z,30.6671,-87.9365,4.536,5.76,1111122 
DISL,ioos:station:DISL:MHPA:1,2012-09-05T03:00:00Z,30.6671,-87.9365,4.456,4.38,1111122 
DISL,ioos:station:DISL:MHPA:1,2012-09-05T03:30:00Z,30.6671,-87.9365,4.259,5.27,1111122 
DISL,ioos:station:DISL:MHPA:1,2012-09-05T04:00:00Z,30.6671,-87.9365,4.389,5.12,1111122 
DISL,ioos:station:DISL:MHPA:1,2012-09-05T04:30:00Z,30.6671,-87.9365,4.402,5.44,1111122 
DISL,ioos:station:DISL:MHPA:1,2012-09-05T05:00:00Z,30.6671,-87.9365,4.257,5.44,1111122 
DISL,ioos:station:DISL:MHPA:1,2012-09-05T05:30:00Z,30.6671,-87.9365,4.412,5.39,1111122 
DISL,ioos:station:DISL:MHPA:1,2012-09-05T06:00:00Z,30.6671,-87.9365,4.528,5.47,1111122 
DISL,ioos:station:DISL:MHPA:1,2012-09-05T06:30:00Z,30.6671,-87.9365,4.526,5.24,1111122 
DISL,ioos:station:DISL:MHPA:1,2012-09-05T07:00:00Z,30.6671,-87.9365,4.562,5.15,1111122 
DISL,ioos:station:DISL:MHPA:1,2012-09-05T07:30:00Z,30.6671,-87.9365,4.534,5.17,1111122 
DISL,ioos:station:DISL:MHPA:1,2012-09-05T08:00:00Z,30.6671,-87.9365,4.593,5.27,1111122 
DISL,ioos:station:DISL:MHPA:1,2012-09-05T08:30:00Z,30.6671,-87.9365,4.503,5.3,1111122 
DISL,ioos:station:DISL:MHPA:1,2012-09-05T09:00:00Z,30.6671,-87.9365,4.545,5.23,1111122 
DISL,ioos:station:DISL:MHPA:1,2012-09-05T09:30:00Z,30.6671,-87.9365,4.68,4.99,1111122 
DISL,ioos:station:DISL:MHPA:1,2012-09-05T10:00:00Z,30.6671,-87.9365,4.675,4.74,1111122 
DISL,ioos:station:DISL:MHPA:1,2012-09-05T10:30:00Z,30.6671,-87.9365,4.809,5.17,1111122 
DISL,ioos:station:DISL:MHPA:1,2012-09-05T11:00:00Z,30.6671,-87.9365,4.816,5.15,1111122 
DISL,ioos:station:DISL:MHPA:1,2012-09-05T11:30:00Z,30.6671,-87.9365,4.59,5.11,1111122 
DISL,ioos:station:DISL:MHPA:1,2012-09-05T12:00:00Z,30.6671,-87.9365,4.487,4.96,1111122 
DISL,ioos:station:DISL:MHPA:1,2012-09-05T12:30:00Z,30.6671,-87.9365,4.412,4.34,1111122 
DISL,ioos:station:DISL:MHPA:1,2012-09-05T13:00:00Z,30.6671,-87.9365,4.363,4.28,1111122 
DISL,ioos:station:DISL:MHPA:1,2012-09-05T13:30:00Z,30.6671,-87.9365,4.259,4.17,1111122 
DISL,ioos:station:DISL:MHPA:1,2012-09-05T14:00:00Z,30.6671,-87.9365,4.194,4.21,1111122 
DISL,ioos:station:DISL:MHPA:1,2012-09-05T14:30:00Z,30.6671,-87.9365,4.074,4.33,1111122 
DISL,ioos:station:DISL:MHPA:1,2012-09-05T15:00:00Z,30.6671,-87.9365,3.928,4.33,1111122 
DISL,ioos:station:DISL:MHPA:1,2012-09-05T15:30:00Z,30.6671,-87.9365,3.784,4.55,1111122 
DISL,ioos:station:DISL:MHPA:1,2012-09-05T16:00:00Z,30.6671,-87.9365,3.692,4.6,1111122 
DISL,ioos:station:DISL:MHPA:1,2012-09-05T16:30:00Z,30.6671,-87.9365,3.617,4.71,1111122 
DISL,ioos:station:DISL:MHPA:1,2012-09-05T17:00:00Z,30.6671,-87.9365,3.578,4.82,1111122 
DISL,ioos:station:DISL:MHPA:1,2012-09-05T17:30:00Z,30.6671,-87.9365,3.441,5.0,1111122 
DISL,ioos:station:DISL:MHPA:1,2012-09-05T18:00:00Z,30.6671,-87.9365,3.329,5.25,1111122 
DISL,ioos:station:DISL:MHPA:1,2012-09-05T18:30:00Z,30.6671,-87.9365,3.262,5.03,1111122 
DISL,ioos:station:DISL:MHPA:1,2012-09-05T19:00:00Z,30.6671,-87.9365,3.174,5.35,1111122 
DISL,ioos:station:DISL:MHPA:1,2012-09-05T19:30:00Z,30.6671,-87.9365,3.135,4.91,1111122 
DISL,ioos:station:DISL:MHPA:1,2012-09-05T20:00:00Z,30.6671,-87.9365,3.119,5.87,1111122 
DISL,ioos:station:DISL:MHPA:1,2012-09-05T20:30:00Z,30.6671,-87.9365,3.071,5.57,1111122 
DISL,ioos:station:DISL:MHPA:1,2012-09-05T21:00:00Z,30.6671,-87.9365,3.035,5.87,1111122 
DISL,ioos:station:DISL:MHPA:1,2012-09-05T21:30:00Z,30.6671,-87.9365,3.076,6.02,1111122 
DISL,ioos:station:DISL:MHPA:1,2012-09-05T22:00:00Z,30.6671,-87.9365,3.136,5.29,1111122 
DISL,ioos:station:DISL:MHPA:1,2012-09-05T22:30:00Z,30.6671,-87.9365,3.206,5.71,1111122 
DISL,ioos:station:DISL:MHPA:1,2012-09-05T23:00:00Z,30.6671,-87.9365,3.32,5.89,1111122 
DISL,ioos:station:DISL:MHPA:1,2012-09-05T23:30:00Z,30.6671,-87.9365,3.474,6.33,1111122 
DISL,ioos:station:DISL:MHPA:1,2012-09-06T00:00:00Z,30.6671,-87.9365,3.564,5.69,1111122 
DISL,ioos:station:DISL:MHPA:1,2012-09-06T00:30:00Z,30.6671,-87.9365,3.569,5.33,1111122 
DISL,ioos:station:DISL:MHPA:1,2012-09-06T01:00:00Z,30.6671,-87.9365,3.65,5.5,1111122 
DISL,ioos:station:DISL:MHPA:1,2012-09-06T01:30:00Z,30.6671,-87.9365,3.69,5.01,1111122 
DISL,ioos:station:DISL:MHPA:1,2012-09-06T02:00:00Z,30.6671,-87.9365,3.744,5.27,1111122 
DISL,ioos:station:DISL:MHPA:1,2012-09-06T02:30:00Z,30.6671,-87.9365,3.812,5.85,1111122 
DISL,ioos:station:DISL:MHPA:1,2012-09-06T03:00:00Z,30.6671,-87.9365,3.856,5.83,1111122 
DISL,ioos:station:DISL:MHPA:1,2012-09-06T03:30:00Z,30.6671,-87.9365,3.929,5.74,1111122 
DISL,ioos:station:DISL:MHPA:1,2012-09-06T04:00:00Z,30.6671,-87.9365,4.034,5.51,1111122 
DISL,ioos:station:DISL:MHPA:1,2012-09-06T04:30:00Z,30.6671,-87.9365,4.139,5.45,1111122 
DISL,ioos:station:DISL:MHPA:1,2012-09-06T05:00:00Z,30.6671,-87.9365,4.222,5.8,1111122 
DISL,ioos:station:DISL:MHPA:1,2012-09-06T05:30:00Z,30.6671,-87.9365,4.328,5.42,1111122 
DISL,ioos:station:DISL:MHPA:1,2012-09-06T06:00:00Z,30.6671,-87.9365,4.435,5.47,1111122 
DISL,ioos:station:DISL:MHPA:1,2012-09-06T06:30:00Z,30.6671,-87.9365,4.538,4.89,1111122 
DISL,ioos:station:DISL:MHPA:1,2012-09-06T07:00:00Z,30.6671,-87.9365,4.54,5.48,1111122 
DISL,ioos:station:DISL:MHPA:1,2012-09-06T07:30:00Z,30.6671,-87.9365,4.546,5.59,1111122 
DISL,ioos:station:DISL:MHPA:1,2012-09-06T08:00:00Z,30.6671,-87.9365,4.615,5.33,1111122 
DISL,ioos:station:DISL:MHPA:1,2012-09-06T08:30:00Z,30.6671,-87.9365,4.654,5.17,1111122 
DISL,ioos:station:DISL:MHPA:1,2012-09-06T09:00:00Z,30.6671,-87.9365,4.689,4.79,1111122 
DISL,ioos:station:DISL:MHPA:1,2012-09-06T09:30:00Z,30.6671,-87.9365,4.71,4.85,1111122 
DISL,ioos:station:DISL:MHPA:1,2012-09-06T10:00:00Z,30.6671,-87.9365,4.759,5.27,1111122 
DISL,ioos:station:DISL:MHPA:1,2012-09-06T10:30:00Z,30.6671,-87.9365,4.793,4.8,1111122 
DISL,ioos:station:DISL:MHPA:1,2012-09-06T11:00:00Z,30.6671,-87.9365,4.714,5.17,1111122 
DISL,ioos:station:DISL:MHPA:1,2012-09-06T11:30:00Z,30.6671,-87.9365,4.61,4.97,1111122 
DISL,ioos:station:DISL:MHPA:1,2012-09-06T12:00:00Z,30.6671,-87.9365,4.553,4.68,1111122 
DISL,ioos:station:DISL:MHPA:1,2012-09-06T12:30:00Z,30.6671,-87.9365,4.486,4.57,1111122 
DISL,ioos:station:DISL:MHPA:1,2012-09-06T13:00:00Z,30.6671,-87.9365,4.407,4.74,1111122 
DISL,ioos:station:DISL:MHPA:1,2012-09-06T13:30:00Z,30.6671,-87.9365,4.285,4.78,1111122 
DISL,ioos:station:DISL:MHPA:1,2012-09-06T14:00:00Z,30.6671,-87.9365,4.257,4.39,1111122 
DISL,ioos:station:DISL:MHPA:1,2012-09-06T14:30:00Z,30.6671,-87.9365,4.131,4.21,1111122 
DISL,ioos:station:DISL:MHPA:1,2012-09-06T15:00:00Z,30.6671,-87.9365,4.039,4.59,1111122 
DISL,ioos:station:DISL:MHPA:1,2012-09-06T15:30:00Z,30.6671,-87.9365,3.952,4.79,1111122 